Lobo

Go HERE for most recent data if this page is not up to date.

Jump to table bottom
Date/Time Temp deg F RH % 24 Hr Snow (in) Snow Depth (in) H2O (in)
01/25 02:00 21.3 82 0.2 47.2 0.00
01/25 01:00 21.4 83 0.2 46.6 0.00
01/25 00:00 22.3 72 0.0 46.6 0.00
01/24 23:00 23.0 79 0.0 46.8 0.00
01/24 22:00 23.1 88 0.0 47.1 0.00
01/24 21:00 23.6 88 0.2 47.2 0.00
01/24 20:00 24.0 74 0.2 47.4 0.00
01/24 19:00 24.1 80 0.0 47.3 0.00
01/24 18:00 24.4 89 0.0 47.5 0.01
01/24 17:00 25.1 87 0.0 47.4 0.01
01/24 16:00 25.5 91 0.0 47.0 0.00
01/24 15:00 25.8 88 0.0 46.0 0.00
01/24 14:00 27.1 82 -0.0 46.8 0.00
01/24 13:00 26.9 73 0.0 47.0 0.00
01/24 12:00 26.9 79 0.1 47.3 0.00
01/24 11:00 25.1 79 0.1 47.3 0.00
01/24 10:00 22.6 84 0.2 47.5 0.00
01/24 09:00 18.9 91 0.2 47.5 0.00
01/24 08:00 18.1 92 0.0 47.3 0.00
01/24 07:00 18.6 92 0.1 47.4 0.00
01/24 06:00 18.3 93 0.2 47.6 0.00
01/24 05:00 17.2 92 0.0 47.4 0.00
01/24 04:00 18.6 92 0.0 47.4 0.00
01/24 03:00 22.9 92 -0.1 47.2 0.00
01/24 02:00 23.2 86 0.2 47.8 0.00
01/24 01:00 24.7 86 0.0 47.6 0.00
01/24 00:00 25.3 82 0.0 47.8 0.00
.